Storm Lake, IA

4:10 PM CDT on July 25, 2016 (GMT -0500)
Storm Lake Municipal

Weather History for KSLB - May, 2013

Change the Weather History Date:

Friday, May 3, 2013

  Actual Average Record
Temperature  
Mean Temperature 36 °F -  
Max Temperature 41 °F 66 °F 85 °F (2012)
Min Temperature 30 °F 45 °F 26 °F (2011)
Degree Days  
Heating Degree Days 30    
Moisture  
Dew Point 30 °F    
Average Humidity 81    
Maximum Humidity 100    
Minimum Humidity 61    
Precipitation  
Precipitation 0.00 in - - ()
Sea Level Pressure  
Sea Level Pressure 30.18 in    
Wind  
Wind Speed 17 mph (North)    
Max Wind Speed 24 mph    
Max Gust Speed 31 mph    
Visibility 10 miles    
Events Snow    
Averages and records for this station are not official NWS values.
T = Trace of Precipitation, MM = Missing Value Source: NWS Daily Summary

Daily Weather History Graph

Daily Weather History Graph

Search for Another Location

Airport or City:

Trip Planner

Search our weather history database for the weather conditions in past years. The results will help you decide how hot, cold, wet, or windy it might be!

Date:

Astronomy

May. 03, 2013 Rise Set
Actual Time 6:12 AM CDT 8:23 PM CDT
Civil Twilight 5:41 AM CDT 8:54 PM CDT
Nautical Twilight 5:03 AM CDT 9:33 PM CDT
Astronomical Twilight 4:21 AM CDT 10:15 PM CDT
Moon 2:46 AM CDT (5/3) 2:11 PM CDT (5/3)
Length of Visible Light 15h 13m
Length of Day
14h 11m
Last Quarter, 37% of the Moon is Illuminated
May 3
Last Quarter
May 9
New
May 17
First Quarter
May 24
Full
May 31
Last Quarter

Hourly Weather History & Observations

Time (CDT) Temp. Windchill Dew Point Humidity Pressure Visibility Wind Dir Wind Speed Gust Speed Precip Events Conditions
12:15 AM 35.6 °F 26.2 °F 28.4 °F 75% 30.37 in 10.0 mi North 15.0 mph 20.7 mph N/A   Clear
12:35 AM 33.8 °F 24.3 °F 28.4 °F 81% 30.36 in 10.0 mi North 13.8 mph - N/A   Clear
12:55 AM 33.8 °F 24.3 °F 28.4 °F 81% 30.36 in 10.0 mi North 13.8 mph - N/A   Clear
1:15 AM 33.8 °F 23.9 °F 28.4 °F 81% 30.35 in 10.0 mi North 15.0 mph 21.9 mph N/A   Clear
1:35 AM 33.8 °F 24.3 °F 28.4 °F 81% 30.35 in 10.0 mi North 13.8 mph - N/A   Clear
1:55 AM 33.8 °F 24.3 °F 28.4 °F 81% 30.33 in 10.0 mi North 13.8 mph - N/A   Clear
2:15 AM 33.8 °F 24.8 °F 28.4 °F 81% 30.32 in 10.0 mi North 12.7 mph 19.6 mph N/A   Clear
2:35 AM 33.8 °F 24.3 °F 28.4 °F 81% 30.31 in - North 13.8 mph - N/A   Clear
2:55 AM 32.0 °F 22.5 °F 28.4 °F 87% 30.30 in 10.0 mi North 12.7 mph - N/A   Clear
3:15 AM 32.0 °F 23.0 °F 28.4 °F 87% 30.31 in 10.0 mi North 11.5 mph - N/A   Clear
3:35 AM 32.0 °F 22.5 °F 28.4 °F 87% 30.30 in 10.0 mi North 12.7 mph - N/A   Mostly Cloudy
3:55 AM 32.0 °F 22.1 °F 28.4 °F 87% 30.30 in 10.0 mi North 13.8 mph - N/A   Overcast
4:15 AM 32.0 °F 21.6 °F 28.4 °F 87% 30.29 in 10.0 mi North 15.0 mph - N/A   Overcast
4:35 AM 32.0 °F 21.6 °F 28.4 °F 87% 30.28 in 10.0 mi North 15.0 mph - N/A   Overcast
4:55 AM 32.0 °F 21.2 °F 28.4 °F 87% 30.27 in 10.0 mi North 16.1 mph - N/A   Overcast
5:15 AM 32.0 °F 21.6 °F 26.6 °F 80% 30.27 in 10.0 mi North 15.0 mph 20.7 mph N/A   Overcast
5:35 AM 32.0 °F 21.6 °F 26.6 °F 80% 30.27 in 10.0 mi North 15.0 mph - N/A   Overcast
5:55 AM 32.0 °F 21.6 °F 26.6 °F 80% 30.27 in 10.0 mi North 15.0 mph 21.9 mph N/A   Overcast
6:15 AM 30.2 °F 19.8 °F 26.6 °F 86% 30.28 in 10.0 mi North 13.8 mph - N/A   Overcast
6:35 AM 30.2 °F 19.8 °F 26.6 °F 86% 30.26 in 10.0 mi North 13.8 mph - N/A   Overcast
6:55 AM 30.2 °F 18.9 °F 26.6 °F 86% 30.26 in 10.0 mi North 16.1 mph - N/A   Overcast
7:15 AM 30.2 °F 18.5 °F 26.6 °F 86% 30.25 in 10.0 mi North 17.3 mph - N/A   Scattered Clouds
7:35 AM 30.2 °F 18.1 °F 26.6 °F 86% 30.25 in 10.0 mi North 18.4 mph 24.2 mph N/A   Mostly Cloudy
7:55 AM 30.2 °F 18.5 °F 26.6 °F 86% 30.24 in 10.0 mi North 17.3 mph - N/A   Partly Cloudy
8:15 AM 32.0 °F 20.8 °F 26.6 °F 80% 30.25 in 10.0 mi North 17.3 mph - N/A   Mostly Cloudy
8:35 AM 32.0 °F 21.6 °F 26.6 °F 80% 30.26 in 10.0 mi North 15.0 mph - N/A   Overcast
8:55 AM 32.0 °F 20.5 °F 26.6 °F 80% 30.25 in 10.0 mi North 18.4 mph - N/A   Overcast
9:15 AM 32.0 °F 20.5 °F 26.6 °F 80% 30.23 in 10.0 mi North 18.4 mph - N/A   Overcast
9:35 AM 32.0 °F 21.2 °F 26.6 °F 80% 30.23 in 10.0 mi North 16.1 mph 23.0 mph N/A   Overcast
9:55 AM 32.0 °F 20.8 °F 28.4 °F 87% 30.23 in 10.0 mi North 17.3 mph - N/A   Overcast
10:15 AM 32.0 °F 21.2 °F 28.4 °F 87% 30.22 in 10.0 mi North 16.1 mph - N/A   Overcast
10:35 AM 33.8 °F 22.8 °F 28.4 °F 81% 30.20 in 10.0 mi North 18.4 mph - N/A   Overcast
10:55 AM 33.8 °F 22.2 °F 28.4 °F 81% 30.20 in 10.0 mi North 20.7 mph - N/A   Overcast
11:15 AM 35.6 °F 24.2 °F 30.2 °F 81% 30.18 in 10.0 mi North 21.9 mph 29.9 mph N/A   Overcast
11:35 AM 37.4 °F 26.1 °F 30.2 °F 75% 30.17 in 10.0 mi North 24.2 mph - N/A   Overcast
11:55 AM 37.4 °F 26.4 °F 30.2 °F 75% 30.17 in 10.0 mi North 23.0 mph - N/A   Overcast
12:15 PM 37.4 °F 26.6 °F 30.2 °F 75% 30.17 in 10.0 mi North 21.9 mph 29.9 mph N/A   Overcast
12:35 PM 39.2 °F 29.0 °F 30.2 °F 70% 30.16 in 10.0 mi North 21.9 mph - N/A   Overcast
12:55 PM 41.0 °F 31.6 °F 30.2 °F 65% 30.14 in 10.0 mi North 20.7 mph 31.1 mph N/A   Overcast
1:15 PM 41.0 °F 31.1 °F 30.2 °F 65% 30.14 in 10.0 mi North 23.0 mph 31.1 mph N/A   Overcast
1:35 PM 41.0 °F 31.1 °F 30.2 °F 65% 30.14 in 10.0 mi North 23.0 mph - N/A   Overcast
1:55 PM 41.0 °F 31.9 °F 30.2 °F 65% 30.13 in 10.0 mi North 19.6 mph 26.5 mph N/A   Overcast
2:15 PM 41.0 °F 31.4 °F 28.4 °F 61% 30.12 in 10.0 mi NNE 21.9 mph 31.1 mph N/A   Overcast
2:35 PM 41.0 °F 31.6 °F 28.4 °F 61% 30.12 in 10.0 mi North 20.7 mph 27.6 mph N/A   Overcast
2:55 PM 41.0 °F 31.1 °F 28.4 °F 61% 30.12 in 10.0 mi NNE 23.0 mph 29.9 mph N/A   Mostly Cloudy
3:15 PM 41.0 °F 31.4 °F 30.2 °F 65% 30.10 in 10.0 mi North 21.9 mph 28.8 mph N/A   Mostly Cloudy
3:35 PM 41.0 °F 30.9 °F 28.4 °F 61% 30.09 in 10.0 mi North 24.2 mph 29.9 mph N/A   Scattered Clouds
3:55 PM 39.2 °F 29.3 °F 30.2 °F 70% 30.10 in 10.0 mi North 20.7 mph 29.9 mph N/A   Mostly Cloudy
4:15 PM 39.2 °F 30.2 °F 30.2 °F 70% 30.10 in 10.0 mi North 17.3 mph 25.3 mph N/A   Overcast
4:35 PM 41.0 °F 31.9 °F 30.2 °F 65% 30.09 in 10.0 mi NNE 19.6 mph 28.8 mph N/A   Overcast
4:55 PM 41.0 °F 31.4 °F 30.2 °F 65% 30.08 in 10.0 mi NNE 21.9 mph 28.8 mph N/A   Mostly Cloudy
5:15 PM 41.0 °F 32.2 °F 30.2 °F 65% 30.08 in 10.0 mi NNE 18.4 mph 29.9 mph N/A   Overcast
5:35 PM 39.2 °F 29.6 °F 32.0 °F 75% 30.08 in 10.0 mi NNE 19.6 mph 26.5 mph N/A   Overcast
5:55 PM 39.2 °F 30.5 °F 32.0 °F 75% 30.09 in 10.0 mi NNE 16.1 mph 23.0 mph N/A   Overcast
6:15 PM 39.2 °F 29.3 °F 32.0 °F 75% 30.07 in 10.0 mi NNE 20.7 mph 29.9 mph N/A   Overcast
6:35 PM 39.2 °F 29.8 °F 33.8 °F 81% 30.07 in 10.0 mi NNE 18.4 mph 26.5 mph N/A   Overcast
6:55 PM 37.4 °F 27.2 °F 35.6 °F 93% 30.07 in 8.0 mi NNE 19.6 mph 25.3 mph N/A   Overcast
7:15 PM 37.4 °F 27.8 °F 35.6 °F 93% 30.06 in 3.0 mi North 17.3 mph 23.0 mph N/A   Light Drizzle
7:35 PM 37.4 °F 28.2 °F 35.6 °F 93% 30.06 in 9.0 mi North 16.1 mph 25.3 mph N/A   Light Drizzle
7:55 PM 37.4 °F 26.1 °F 35.6 °F 93% 30.07 in 10.0 mi NNE 24.2 mph - N/A Snow Light Snow
8:15 PM 35.6 °F 25.2 °F 33.8 °F 93% 30.08 in 10.0 mi NNE 18.4 mph 28.8 mph N/A Snow Light Snow
8:35 PM 35.6 °F 25.5 °F 33.8 °F 93% 30.08 in 9.0 mi NNE 17.3 mph 27.6 mph N/A   Light Drizzle
8:55 PM 35.6 °F 25.2 °F 33.8 °F 93% 30.08 in 10.0 mi NE 18.4 mph 25.3 mph N/A   Light Drizzle
9:15 PM 35.6 °F 26.2 °F 33.8 °F 93% 30.09 in 6.0 mi NNE 15.0 mph 24.2 mph N/A   Light Drizzle
9:35 PM 35.6 °F 24.8 °F 33.8 °F 93% 30.09 in 4.0 mi NNE 19.6 mph - N/A Snow Light Snow
9:55 PM 35.6 °F 25.2 °F 33.8 °F 93% 30.07 in 10.0 mi NNE 18.4 mph 26.5 mph N/A Snow Light Snow
10:15 PM 35.6 °F 23.7 °F 33.8 °F 93% 30.06 in 10.0 mi North 24.2 mph - N/A Snow Light Snow
10:35 PM 33.8 °F 21.9 °F 33.8 °F 100% 30.05 in 10.0 mi NNE 21.9 mph 28.8 mph N/A Snow Light Snow
10:55 PM 33.8 °F 21.9 °F 32.0 °F 93% 30.06 in 10.0 mi NNE 21.9 mph - N/A   Overcast
11:15 PM 33.8 °F 22.2 °F 32.0 °F 93% 30.05 in 10.0 mi NNE 20.7 mph - N/A   Overcast
11:35 PM 33.8 °F 23.5 °F 32.0 °F 93% 30.06 in 10.0 mi NNE 16.1 mph 25.3 mph N/A   Overcast
11:55 PM 33.8 °F 23.5 °F 32.0 °F 93% 30.05 in 10.0 mi NNE 16.1 mph 24.2 mph N/A   Overcast